This demonstration page uses our WeatherBlox Daily Observations layout. Learn more.

Hourly Observations for February 3, 2019

Temp ( °F °C ) Dew Point ( °F °C ) Humidity (%) Winds ( mph kmh ) Pressure ( in mb ) Visibility ( mi km ) Precip ( " mm )
12:54 am 00:54 Clear with Mist and Fog 43 6.1 42 5.6 97 97 SSW 7 11 29.72 1006 5 8.0467 0 0
1:17 am 01:17 Clear with Mist and Fog 41 5 41 5 100 100 SSW 7 11 29.74 1007 1.75 2.816345 0 0
1:46 am 01:46 Mostly Cloudy with Mist and Fog 41 5 41 5 100 100 SSW 8 13 29.74 1007 1 1.60934 0 0
1:54 am 01:54 Mostly Cloudy with Mist and Fog 42 5.6 41 5 96 96 SSW 8 13 29.72 1006 1.25 2.011675 0 0
2:07 am 02:07 Cloudy with Mist and Fog 43 6.1 42 5.6 97 97 SSW 7 11 29.74 1007 2.5 4.02335 0 0
2:16 am 02:16 Cloudy with Mist and Fog 43 6.1 42 5.6 97 97 SSW 7 11 29.74 1007 0.75 1.207005 0 0
2:29 am 02:29 Mostly Cloudy with Fog 43 6.1 43 6.1 100 100 SSW 5 7 29.74 1007 0.25 0.402335 0 0
2:51 am 02:51 Mostly Cloudy with Mist and Fog 45 7 45 7 100 100 SSW 9 15 29.74 1007 0.75 1.207005 0 0
2:54 am 02:54 Cloudy with Mist and Fog 45 7.2 44 6.7 97 97 SSW 10 17 29.71 1006 1 1.60934 0 0
3:10 am 03:10 Cloudy with Mist and Fog 46 7.8 45 7.2 96 96 SSW 9 15 29.73 1007 2 3.21868 0 0
3:20 am 03:20 Cloudy with Mist and Fog 47 8.3 46 7.8 97 97 SSW 9 15 29.73 1007 4 6.43736 0 0
3:27 am 03:27 Cloudy with Mist and Fog 47 8.3 46 7.8 97 97 SSW 9 15 29.73 1007 4 6.43736 0 0
3:54 am 03:54 Cloudy with Mist and Fog 47 8.3 46 7.8 97 97 SSW 9 15 29.71 1006 6 9.65604 0 0
4:11 am 04:11 Cloudy with Mist and Fog 47 8.3 47 8.3 100 100 SSW 9 15 29.71 1006 6 9.65604 0 0
4:32 am 04:32 Cloudy with Mist and Fog 47 8.3 46 7.8 97 97 SSW 8 13 29.71 1006 5 8.0467 0 0
4:54 am 04:54 Cloudy with Mist and Fog 47 8.3 46 7.8 97 97 S 6 9 29.7 1006 5 8.0467 0 0
5:03 am 05:03 Cloudy with Mist and Fog 45 7.2 45 7.2 100 100 S 6 9 29.71 1006 2.5 4.02335 0 0
5:09 am 05:09 Cloudy with Mist and Fog 45 7.2 44 6.7 97 97 S 7 11 29.71 1006 0.75 1.207005 0 0
5:40 am 05:40 Cloudy with Fog 43 6.1 43 6.1 100 100 SSE 7 11 29.72 1006 0.25 0.402335 0 0
5:54 am 05:54 Cloudy with Fog 44 6.7 44 6.7 100 100 SE 6 9 29.7 1006 0.25 0.402335 0 0
6:09 am 06:09 Cloudy with Fog 43 6.1 42 5.6 97 97 SE 5 7 29.71 1006 0.25 0.402335 0 0
6:39 am 06:39 Cloudy with Fog 44 6.7 44 6.7 100 100 SSE 6 9 29.71 1006 0.25 0.402335 0 0
6:54 am 06:54 Mostly Cloudy with Fog 44 6.7 43 6.1 96 96 SSE 8 13 29.68 1005 0.25 0.402335 0 0
7:19 am 07:19 Mostly Cloudy with Fog 44 6.7 43 6.1 96 96 S 6 9 29.7 1006 1 1.60934 0 0
7:42 am 07:42 Mostly Cloudy with Fog 43 6.1 43 6.1 100 100 S 7 11 29.7 1006 1 1.60934 0 0
7:54 am 07:54 Mostly Cloudy with Fog 44 6.7 43 6.1 96 96 S 6 9 29.68 1005 5 8.0467 0 0
8:16 am 08:16 Mostly Cloudy with Fog 45 7.2 44 6.7 97 97 S 8 13 29.69 1006 5 8.0467 0 0
8:54 am 08:54 Mostly Cloudy with Fog 48 8.9 48 8.9 100 100 Calm 29.69 1005 0.25 0.402335 0 0
9:28 am 09:28 Cloudy with Mist and Fog 49 9.4 48 8.9 97 97 ESE 3 6 29.68 1005 0.75 1.207005 0 0
9:38 am 09:38 Cloudy with Mist and Fog 49 9.4 48 8.9 97 97 SSE 5 7 29.68 1005 1.5 2.41401 0 0
9:54 am 09:54 Cloudy with Mist and Fog 50 10 49 9.4 96 96 SSE 6 9 29.67 1005 2 3.21868 0 0
10:25 am 10:25 Cloudy with Mist and Fog 51 10.6 50 10 96 96 SSE 7 11 29.67 1005 3 4.82802 0 0
10:54 am 10:54 Cloudy with Mist and Fog 51 10.6 49 9.4 92 92 S 8 13 29.66 1005 4 6.43736 0 0
11:54 am 11:54 Cloudy with Mist and Fog 52 11.1 50 10 93 93 SSE 8 13 29.63 1003 5 8.0467 0 0
12:54 pm 12:54 Cloudy with Mist and Fog 54 12.2 51 10.6 90 90 SSE 7 11 29.6 1002 6 9.65604 0 0
1:54 pm 13:54 Cloudy 57 13.9 51 10.6 81 81 SSE 9 15 29.55 1001 7 11.26538 0 0
2:41 pm 14:41 Cloudy 58 14.4 51 10.6 78 78 SSE 10 17 29.52 1000 8 12.87472 0 0
2:54 pm 14:54 Cloudy 58 14.4 52 11.1 81 81 SSE 8 13 29.52 1000 8 12.87472 0 0
3:54 pm 15:54 Cloudy 56 13.3 51 10.6 84 84 E 6 9 29.51 999 8 12.87472 0 0
4:10 pm 16:10 Cloudy 56 13.3 51 10.6 84 84 E 6 9 29.51 999 8 12.87472 0 0
4:42 pm 16:42 Mostly Cloudy 54 12.2 50 10 87 87 ENE 5 7 29.51 999 8 12.87472 0 0
4:54 pm 16:54 Mostly Cloudy 52 11.1 49 9.4 89 89 ENE 5 7 29.51 999 7 11.26538 0 0
5:54 pm 17:54 Clear with Mist and Fog 50 10 48 8.9 93 93 Calm 29.51 999 4 6.43736 0 0
6:54 pm 18:54 Cloudy with Mist and Fog 48 8.9 47 8.3 96 96 N 6 9 29.52 1000 2.5 4.02335 0 0
7:00 pm 19:00 Cloudy with Mist and Fog 47 8.3 46 7.8 97 97 N 6 9 29.53 1000 1 1.60934 0 0
7:08 pm 19:08 Cloudy with Mist and Fog 46 7.8 45 7.2 96 96 NNE 3 6 29.53 1000 0.75 1.207005 0 0
7:19 pm 19:19 Mostly Cloudy with Mist and Fog 47 8.3 46 7.8 97 97 Calm 29.53 1000 1.25 2.011675 0 0
7:28 pm 19:28 Cloudy with Mist and Fog 48 8.9 47 8.3 96 96 Calm 29.53 1000 2.5 4.02335 0 0
7:38 pm 19:38 Cloudy with Mist and Fog 47 8.3 46 7.8 97 97 N 5 7 29.53 1000 2 3.21868 0 0
7:43 pm 19:43 Mostly Cloudy with Mist and Fog 46 7.8 45 7.2 96 96 N 6 9 29.53 1000 0.75 1.207005 0 0
7:54 pm 19:54 Mostly Cloudy with Mist and Fog 44 6.7 44 6.7 100 100 N 3 6 29.52 1000 2.5 4.02335 0 0
8:25 pm 20:25 Cloudy with Mist and Fog 47 8.3 46 7.8 97 97 NNW 6 9 29.54 1000 2.5 4.02335 0 0
8:54 pm 20:54 Cloudy with Mist and Fog 45 7.2 44 6.7 97 97 N 8 13 29.52 1000 1.5 2.41401 0 0
9:11 pm 21:11 Mostly Cloudy with Mist and Fog 43 6.1 43 6.1 100 100 SE 7 11 29.53 1000 1.5 2.41401 0 0
9:30 pm 21:30 Mostly Cloudy with Mist and Fog 45 7.2 43 6.1 93 93 WNW 3 6 29.53 1000 1.5 2.41401 0 0
9:37 pm 21:37 Partly Cloudy with Mist and Fog 44 6.7 43 6.1 96 96 NW 5 7 29.55 1001 1.5 2.41401 0 0
9:54 pm 21:54 Mostly Cloudy with Fog 44 6.7 44 6.7 100 100 NW 7 11 29.53 1000 0.25 0.402335 0 0
10:04 pm 22:04 Mostly Cloudy with Fog 45 7.2 44 6.7 97 97 NW 15 24 29.57 1001 0.5 0.80467 0 0
10:12 pm 22:12 Cloudy with Mist and Fog 44 6.7 44 6.7 100 100 NNW 26 43 29.6 1002 2 3.21868 0 0
10:22 pm 22:22 Cloudy with Mist and Fog 38 3.3 37 2.8 97 97 NNW 28 44 29.63 1003 1 1.60934 0 0
10:26 pm 22:26 Cloudy with Mist and Fog 37 2.8 36 2.2 96 96 NNW 28 44 29.64 1004 0.75 1.207005 0 0
10:35 pm 22:35 Cloudy with Mist and Fog 35 1.7 35 1.7 100 100 NNW 22 35 29.64 1004 1 1.60934 0 0
10:54 pm 22:54 Cloudy with Mist and Fog 33 0.6 33 0.6 100 100 NNW 17 28 29.61 1003 1.25 2.011675 0 0
11:25 pm 23:25 Cloudy with Mist and Fog 31 -0.6 30 -1.1 96 96 N 16 26 29.67 1005 2 3.21868 0 0
11:54 pm 23:54 Cloudy with Mist and Fog 30 -1.1 29 -1.7 96 96 N 17 28 29.65 1004 2 3.21868 0 0

Powered by AerisWeather